Temperature
18 18 18 18 18 18 18 19 19 20 20 20 20 19 18 18 17 17 17 16 16 15 15 15 15 15 15 15 15 15 15 15 15 14 14 15 15 15 14 15 15 15 15 15
17 17 17 17 18 18 18 19 19 19 19 20 19 18 18 17 17 16 16 16 16 15 15 15 15 15 15 15 15 14 14 14 14 14 14 14 14 14 14 14 15 14 14 15
18 17 17 17 18 18 18 18 19 19 19 19 18 17 17 16 16 16 16 15 15 15 15 15 15 15 14 14 14 14 14 14 14 14 14 14 14 14 14 14 14 14 14 14
17 17 16 19 19 18 18 18 18 18 18 17 17 16 16 16 15 15 15 15 15 15 15 15 14 14 14 14 14 14 14 14 14 14 14 14 14 14 14 14 14 14 14 14
16 16 17 18 18 18 17 18 17 17 17 16 16 16 16 15 15 15 14 14 14 14 14 14 14 14 14 14 14 14 14 14 14 14 14 14 14 14 14 14 14 14 14 14
16 16 16 18 17 16 17 17 17 16 16 16 16 17 17 15 14 14 14 14 14 14 14 14 14 14 13 13 14 14 14 14 14 14 14 14 14 14 14 14 14 14 14 14
15 16 17 17 16 16 16 17 16 15 15 15 15 16 15 14 13 13 13 13 13 13 13 13 13 13 13 13 13 14 14 14 14 14 14 13 13 13 13 13 13 13 13 13
15 15 16 16 15 16 16 15 15 14 14 14 14 14 13 13 13 13 13 13 13 13 13 13 13 13 13 13 13 13 13 13 13 13 13 13 13 13 13 13 13 13 13 13
15 16 16 14 15 14 14 14 14 14 13 13 13 13 12 12 12 12 12 12 12 12 12 12 12 12 12 13 13 13 13 13 13 13 13 13 13 13 13 13 13 13 13 13
14 15 14 13 13 13 13 13 13 12 12 12 12 12 12 12 12 12 12 12 12 12 12 12 12 12 12 12 12 12 12 13 13 13 13 13 13 13 13 13 13 13 13 13
14 14 13 13 12 12 12 12 12 12 11 11 11 11 11 11 11 11 11 12 12 11 11 11 12 12 12 12 12 12 12 12 12 12 12 12 12 13 13 13 13 13 13 13
13 14 14 13 12 12 11 11 11 11 11 11 11 11 11 11 11 11 11 11 11 11 11 11 11 11 12 12 12 12 12 12 12 12 12 12 12 12 12 13 13 13 13 13
12 11 11 11 11 11 10 10 10 10 10 10 10 10 10 10 10 10 10 10 10 11 11 11 11 11 11 11 12 12 12 12 12 12 12 12 12 12 12 12 12 12 12 13
10 10 10 10 10 10 10 10 10 10 10 10 10 9 9 9 9 9 10 10 10 10 10 10 11 11 11 11 11 12 12 12 12 12 12 11 11 11 12 12 12 12 12 12
9 9 9 9 9 9 9 9 9 9 9 9 9 9 9 9 9 9 9 9 9 9 10 10 10 10 11 11 11 11 11 11 11 11 11 11 11 11 11 11 11 11 12 12
9 9 9 9 9 9 9 9 9 9 9 9 9 9 8 8 8 8 8 9 9 9 9 9 10 10 10 11 11 11 11 11 11 11 11 11 11 11 11 11 11 11 11 11
9 9 9 9 9 9 9 9 8 8 8 8 8 8 8 8 8 8 8 8 8 8 9 9 9 10 10 10 10 10 10 10 11 11 10 10 10 10 10 10 10 10 11 11
8 8 8 8 8 8 8 8 8 8 8 8 8 8 7 7 7 7 7 8 8 8 8 8 9 9 9 9 9 10 10 10 10 10 10 10 10 10 10 10 10 10 10 10
8 8 8 8 8 8 8 8 7 7 8 8 8 7 7 7 7 7 7 7 7 8 8 8 8 9 9 9 9 9 9 9 9 9 9 9 9 9 9 9 9 9 9 9
8 8 7 7 7 7 7 7 7 7 7 7 7 7 7 7 7 7 7 7 7 7 8 8 8 8 8 8 8 8 8 8 8 9 9 8 8 8 8 9 9 9 9 9
7 7 7 7 7 7 7 7 7 7 7 7 7 7 7 7 7 7 7 7 7 7 7 7 7 7 8 8 8 8 8 8 8 8 8 8 8 8 8 8 8 8 8 8
7 7 7 6 6 6 7 6 7 7 7 7 7 6 6 6 6 6 7 7 7 7 7 7 7 7 7 7 7 7 7 7 7 7 7 7 7 7 7 8 8 8 8 8
6 6 6 6 6 6 6 6 6 6 6 6 6 6 6 6 6 6 6 6 6 6 6 7 7 7 7 7 7 7 7 7 7 7 7 7 7 7 7 7 7 7 7 7
6 6 6 6 6 6 5 5 5 6 6 6 6 6 6 6 6 6 6 6 6 6 6 6 7 7 7 7 7 7 7 7 7 7 7 7 7 7 7 7 7 7 7 7
6 6 5 5 5 5 5 5 5 5 5 5 5 5 5 5 5 5 5 5 6 6 6 6 6 6 6 6 6 6 6 6 6 6 6 6 6 6 6 6 6 6 6 6
5 5 5 5 5 5 5 4 4 4 4 4 4 4 5 5 5 5 5 5 5 5 5 5 5 5 5 6 6 6 6 6 6 6 6 6 6 5 5 5 6 6 6 6
5 5 5 4 4 4 4 4 4 4 4 4 4 4 4 4 5 5 5 5 5 5 5 5 5 5 5 5 5 5 5 5 5 5 5 5 5 5 5 5 5 5 5 5
Wind_Speed
8 7 6 8 9 10 12 12 12 12 12 11 10 8 7 5 5 5 5 5 4 4 4 3 3 4 4 4 4 5 6 6 6 6 6 6 5 5 6 6 6 7 7 7
8 7 9 11 12 13 13 14 14 14 14 9 8 6 6 5 5 6 6 6 6 6 5 5 4 4 4 4 5 5 6 6 6 6 6 6 6 6 5 6 6 6 7 7
8 6 8 11 11 11 10 10 11 12 10 7 7 7 6 6 5 7 7 7 7 7 6 6 5 6 6 5 5 6 6 6 6 7 7 7 6 6 5 6 6 6 7 7
6 6 10 4 2 5 8 8 8 9 9 7 8 8 7 6 6 7 8 9 8 8 7 6 6 6 6 6 6 7 8 7 7 7 7 7 6 7 6 6 6 6 6 7
6 8 9 6 4 4 7 8 5 7 7 6 6 6 6 4 6 8 9 9 8 8 7 6 6 6 6 6 6 8 8 8 8 8 8 7 7 7 6 6 7 6 6 7
7 8 7 3 1 2 6 7 1 3 4 5 5 7 5 5 8 9 9 8 8 7 6 6 6 6 6 6 7 7 7 8 8 8 8 8 8 7 6 6 7 6 6 7
11 10 7 2 0 2 6 2 2 4 6 6 7 8 8 8 8 8 9 8 8 7 6 6 5 6 7 7 7 6 7 7 7 8 8 8 8 7 6 6 7 7 7 6
8 9 6 2 2 4 4 4 5 6 7 8 8 8 8 8 8 8 8 8 7 6 6 5 5 6 7 7 6 5 6 7 7 7 7 7 7 7 7 6 7 8 7 7
6 5 2 1 3 5 6 7 7 7 7 8 8 8 8 8 8 8 9 8 7 7 7 6 5 6 7 7 6 6 6 6 7 7 6 6 7 7 7 6 6 7 6 6
7 7 6 6 6 7 7 7 8 7 8 8 9 9 9 8 8 8 9 8 8 7 7 7 6 6 7 6 6 7 7 6 6 7 7 6 6 6 6 7 7 7 7 7
9 8 7 7 7 7 7 8 8 8 8 9 9 9 9 8 8 8 8 8 8 7 7 8 7 6 6 6 6 7 7 7 6 6 7 6 6 5 7 7 7 7 7 7
7 7 7 8 8 8 8 9 9 9 9 9 9 9 10 9 9 8 9 8 8 8 8 8 7 6 6 5 6 7 7 7 6 6 6 6 6 5 3 4 5 6 6 6
9 8 9 9 9 9 9 9 9 8 9 9 9 9 9 9 9 9 9 9 8 8 8 8 7 6 6 5 6 7 7 7 6 6 6 6 6 6 5 4 4 6 7 8
8 8 9 9 9 8 9 9 8 8 8 8 8 8 8 9 9 9 9 9 9 8 8 8 7 6 6 5 5 6 6 6 6 6 6 6 7 7 7 6 5 5 6 8
8 8 9 9 8 8 8 8 8 8 8 8 8 8 8 9 9 9 9 9 8 8 8 7 7 6 5 5 5 5 5 5 5 5 6 6 6 7 7 7 6 5 5 6
7 8 8 8 9 9 8 8 8 9 8 8 8 8 8 9 9 9 8 8 8 8 8 7 7 6 5 4 4 4 4 4 5 5 6 6 6 6 6 7 6 6 6 6
6 7 8 9 9 9 8 8 8 9 8 8 8 8 8 8 8 8 8 8 8 8 8 7 6 5 4 4 5 4 3 4 5 5 5 5 6 6 6 6 6 6 6 6
8 8 9 9 9 9 9 8 8 9 8 8 8 8 8 8 8 8 8 9 8 8 7 6 5 5 4 4 4 4 4 4 4 4 5 5 5 6 6 6 6 7 5 5
8 8 9 9 8 8 8 8 8 8 8 8 8 8 8 8 8 8 8 8 8 7 6 5 5 5 5 4 3 3 4 4 4 4 5 5 6 5 5 6 6 6 5 5
6 6 7 7 7 7 7 8 8 8 8 7 7 7 8 8 7 7 7 7 6 6 5 5 5 5 5 4 3 3 4 4 5 4 5 5 6 6 6 6 6 6 6 6
6 6 7 7 7 7 7 7 7 7 7 7 7 7 7 7 7 6 6 6 6 5 4 5 4 4 4 3 4 4 4 5 5 5 5 5 6 6 6 6 6 6 6 6
6 6 7 7 7 7 7 7 7 7 7 7 7 7 7 7 7 6 6 5 5 4 3 3 3 3 3 4 4 4 5 5 5 5 5 6 6 6 6 6 6 6 6 6
6 7 7 7 7 7 8 7 7 6 6 6 6 6 6 6 5 5 5 4 3 4 3 3 3 4 4 4 4 4 5 5 5 5 6 6 6 6 6 6 6 6 6 6
6 6 7 7 7 7 7 7 6 5 6 6 6 6 6 4 4 4 4 4 5 5 3 3 3 4 4 3 3 3 4 4 5 5 5 5 5 5 5 5 5 5 6 6
6 6 6 6 6 6 6 7 6 6 6 5 5 6 5 4 4 4 4 3 3 3 2 2 2 3 2 2 2 3 3 4 4 4 4 5 5 5 5 5 5 5 5 5
5 5 5 5 5 5 5 5 4 5 5 5 5 5 5 4 4 4 3 3 3 3 3 2 2 2 2 2 2 2 2 3 3 3 4 4 5 5 5 5 6 5 5 5
4 4 4 4 5 4 4 4 4 5 5 4 5 5 5 4 4 4 3 2 2 2 2 2 2 2 2 1 2 2 2 2 2 3 3 3 4 4 5 5 5 5 5 5
Wind_Direction
254 263 255 251 248 239 241 249 258 265 266 275 283 290 296 298 297 292 286 281 281 282 283 282 274 264 249 237 229 221 217 213 211 212 209 206 199 200 200 196 195 194 195 195
246 243 249 254 250 245 246 250 255 263 270 281 287 290 286 289 293 291 292 289 287 281 279 277 271 264 254 240 231 223 220 217 210 211 206 200 197 195 197 197 196 193 195 191
246 245 258 250 242 238 238 242 249 255 267 283 282 282 283 286 285 289 297 298 290 283 277 274 270 263 255 248 235 226 220 215 204 206 204 200 192 191 195 198 195 195 193 190
251 248 242 248 222 239 241 249 254 265 274 280 283 287 279 275 285 296 302 298 291 284 275 272 270 264 258 245 236 227 216 210 202 199 200 195 192 194 197 199 194 194 192 191
237 245 258 252 238 235 246 254 258 269 280 293 295 279 265 282 296 298 300 297 289 282 275 271 266 258 252 244 237 226 215 208 202 198 195 194 197 200 199 199 194 191 188 189
231 241 249 250 186 273 260 247 252 293 300 306 289 271 284 314 307 303 302 300 294 282 273 268 264 254 247 241 237 230 218 210 202 200 197 197 200 200 197 197 194 188 187 192
234 242 251 300 303 220 237 282 352 303 300 294 282 289 299 302 302 303 302 302 298 284 273 268 261 249 247 244 239 234 221 210 201 198 199 199 197 196 195 195 190 187 186 187
224 234 241 108 174 234 294 331 310 301 294 288 293 301 303 303 304 304 305 305 301 290 283 275 263 248 247 247 247 235 215 206 201 199 196 194 190 190 192 190 187 185 188 187
232 247 319 243 268 296 307 302 302 300 298 296 295 299 303 304 305 304 303 305 301 296 291 280 268 258 252 249 241 232 216 204 199 199 196 192 191 190 189 190 192 191 190 193
255 252 259 272 281 287 292 295 301 301 299 296 294 298 301 303 303 302 301 302 302 298 293 287 279 269 260 253 240 227 215 207 200 199 194 192 196 196 196 196 199 199 198 198
254 264 268 262 269 283 293 295 295 296 296 294 294 294 296 299 302 302 302 299 296 292 290 288 288 280 264 249 234 224 211 206 205 204 199 196 198 203 205 205 209 207 205 202
256 265 268 273 279 286 288 289 290 291 293 290 289 291 295 296 298 299 298 296 292 291 289 288 286 284 274 248 227 220 210 206 205 204 201 201 201 204 207 218 202 213 217 217
273 282 285 289 290 287 284 286 288 286 285 286 287 288 290 294 294 294 294 294 291 292 290 288 286 281 276 252 230 221 216 210 206 205 203 203 203 205 209 207 200 206 205 208
272 279 280 281 283 286 286 287 287 285 283 282 285 287 288 290 292 292 292 293 292 290 286 284 283 279 271 256 240 229 219 212 210 207 206 208 209 210 211 213 211 211 205 200
269 271 276 282 283 284 286 287 289 288 289 288 286 285 286 287 287 288 290 292 291 289 286 283 281 278 267 253 247 236 222 213 212 212 209 211 214 214 213 213 214 211 206 192
286 283 279 279 281 285 285 284 285 287 287 288 288 287 286 284 284 287 288 288 287 288 285 280 276 271 260 252 245 238 228 215 215 213 209 208 209 212 212 212 212 210 208 205
277 282 283 282 282 283 284 284 285 286 286 286 287 288 286 281 281 284 290 291 287 285 279 273 268 263 253 246 240 235 228 213 207 212 211 211 211 212 211 212 213 215 211 199
275 280 282 282 282 283 286 288 287 287 285 284 285 283 279 276 277 281 285 288 288 284 278 273 267 259 248 243 238 230 222 217 215 214 211 212 212 211 212 213 213 214 211 195
286 287 288 288 286 284 286 288 289 289 288 286 283 281 279 276 276 278 280 281 279 277 277 275 278 260 248 243 246 231 224 223 223 219 212 206 210 211 210 213 216 217 209 202
295 297 296 295 295 292 290 291 291 289 288 288 287 285 284 283 281 278 277 275 267 266 272 278 269 253 245 235 238 232 226 224 222 219 215 211 213 214 212 213 217 221 217 209
299 302 302 303 305 302 296 294 293 292 294 291 287 286 289 291 288 283 278 276 274 276 276 280 262 249 243 243 241 231 222 220 219 219 219 217 216 216 216 217 219 222 220 215
302 305 305 306 307 308 307 302 298 297 297 295 292 293 295 295 294 290 284 277 276 281 273 260 258 261 254 248 233 225 219 219 220 220 221 219 216 216 218 220 221 222 222 218
302 304 306 307 308 310 312 311 307 305 303 302 300 299 299 300 299 292 292 294 289 291 284 268 279 289 263 237 229 225 222 223 224 223 224 223 222 221 221 223 223 221 223 220
303 306 307 308 311 312 313 316 315 311 306 305 305 306 305 306 308 308 302 296 298 296 288 284 286 287 262 236 228 228 229 228 228 228 224 222 223 223 223 224 225 224 225 223
299 302 305 310 311 310 311 318 323 324 320 320 323 323 317 308 302 306 306 301 305 308 303 303 302 299 263 234 229 230 233 234 232 226 219 218 220 222 224 226 227 226 225 225
298 298 300 303 308 308 310 315 318 320 322 325 327 327 326 322 319 320 318 322 330 333 327 318 311 305 279 252 239 238 239 236 230 224 218 216 220 222 226 228 231 228 227 227
294 299 305 311 314 315 315 315 315 316 318 317 319 324 326 328 330 327 322 331 340 335 327 323 316 309 299 276 259 256 254 251 241 233 228 224 224 225 225 227 229 229 229 229
Height
1522 1523 1524 1524 1525 1525 1524 1520 1520 1516 1516 1515 1515 1518 1519 1519 1520 1520 1520 1520 1519 1518 1518 1518 1518 1517 1517 1517 1517 1518 1519 1520 1521 1523 1524 1525 1527 1528 1529 1531 1533 1534 1536 1537
1523 1523 1523 1523 1520 1520 1520 1518 1517 1516 1515 1514 1516 1517 1517 1517 1518 1518 1518 1518 1517 1516 1516 1515 1514 1514 1514 1514 1514 1515 1515 1516 1518 1520 1521 1522 1524 1525 1527 1528 1530 1531 1533 1534
1520 1521 1522 1519 1512 1513 1514 1513 1513 1513 1512 1513 1514 1515 1515 1516 1516 1516 1516 1515 1514 1514 1513 1512 1512 1511 1511 1511 1511 1511 1512 1513 1514 1516 1518 1519 1521 1522 1523 1525 1527 1528 1530 1531
1520 1522 1523 1509 1508 1510 1511 1512 1512 1511 1511 1512 1513 1513 1513 1514 1513 1513 1513 1512 1511 1510 1509 1509 1508 1507 1507 1507 1507 1508 1509 1510 1511 1512 1514 1516 1517 1519 1520 1522 1524 1525 1527 1528
1521 1519 1512 1508 1508 1509 1510 1508 1510 1510 1510 1511 1511 1511 1510 1510 1511 1511 1510 1508 1507 1506 1506 1505 1504 1503 1503 1503 1503 1503 1504 1506 1507 1509 1511 1512 1514 1516 1517 1519 1521 1522 1524 1525
1519 1520 1514 1506 1507 1509 1510 1507 1509 1509 1509 1510 1509 1507 1505 1507 1508 1507 1506 1505 1503 1502 1501 1500 1500 1499 1499 1499 1499 1499 1501 1502 1504 1506 1507 1509 1511 1513 1514 1516 1517 1519 1521 1523
1516 1515 1505 1506 1508 1510 1511 1506 1508 1508 1508 1508 1507 1506 1506 1505 1505 1504 1503 1501 1500 1499 1497 1496 1495 1495 1495 1495 1495 1496 1497 1499 1500 1502 1504 1506 1508 1509 1511 1512 1514 1516 1518 1519
1512 1513 1509 1507 1508 1508 1506 1507 1507 1507 1507 1506 1505 1504 1503 1502 1501 1500 1499 1498 1496 1495 1493 1492 1491 1491 1490 1490 1491 1492 1493 1495 1497 1498 1500 1502 1504 1506 1508 1509 1511 1512 1514 1516
1507 1506 1505 1506 1507 1507 1507 1506 1505 1505 1505 1504 1503 1502 1500 1499 1498 1497 1496 1495 1493 1491 1489 1488 1487 1487 1487 1486 1487 1488 1490 1491 1493 1495 1497 1499 1500 1502 1504 1506 1507 1509 1511 1513
1506 1503 1505 1505 1505 1505 1505 1504 1503 1503 1502 1501 1500 1498 1497 1496 1494 1494 1492 1491 1489 1488 1486 1484 1484 1483 1483 1483 1483 1484 1486 1488 1489 1491 1493 1495 1497 1499 1500 1502 1503 1505 1507 1508
1503 1503 1503 1503 1503 1503 1502 1501 1500 1499 1498 1497 1496 1494 1493 1491 1490 1489 1488 1487 1485 1484 1482 1481 1479 1479 1479 1479 1480 1481 1482 1484 1486 1487 1489 1491 1493 1494 1496 1498 1500 1502 1504 1505
1500 1500 1500 1499 1499 1499 1498 1497 1496 1495 1494 1493 1492 1490 1489 1487 1486 1485 1484 1483 1481 1480 1478 1477 1476 1475 1474 1475 1476 1477 1478 1480 1482 1483 1485 1487 1489 1490 1492 1494 1496 1498 1500 1501
1500 1499 1498 1497 1496 1495 1494 1493 1492 1491 1490 1488 1487 1486 1484 1483 1482 1481 1479 1478 1476 1474 1473 1472 1471 1470 1470 1471 1472 1473 1474 1476 1477 1479 1481 1482 1484 1486 1488 1490 1491 1493 1495 1497
1496 1496 1494 1493 1492 1491 1490 1489 1487 1486 1485 1484 1483 1481 1480 1478 1477 1476 1474 1473 1471 1470 1468 1467 1467 1466 1466 1467 1468 1469 1470 1471 1473 1474 1476 1478 1480 1482 1483 1485 1486 1488 1490 1492
1493 1492 1491 1489 1488 1487 1485 1484 1483 1481 1480 1479 1478 1476 1475 1473 1471 1470 1469 1468 1466 1465 1463 1463 1462 1462 1462 1463 1464 1465 1466 1467 1469 1470 1472 1473 1475 1477 1479 1480 1482 1483 1485 1487
1488 1487 1486 1485 1483 1482 1481 1479 1478 1476 1475 1473 1472 1471 1470 1468 1466 1465 1464 1462 1461 1459 1458 1457 1457 1457 1458 1459 1460 1461 1462 1463 1464 1466 1467 1469 1470 1472 1474 1475 1477 1478 1480 1482
1485 1483 1482 1480 1479 1477 1476 1474 1473 1471 1470 1468 1467 1465 1464 1462 1461 1459 1457 1456 1455 1454 1453 1452 1452 1453 1453 1455 1456 1457 1457 1458 1460 1461 1462 1464 1466 1467 1469 1470 1472 1473 1475 1476
1482 1480 1479 1477 1475 1472 1471 1469 1468 1466 1464 1463 1461 1460 1458 1456 1454 1453 1451 1450 1449 1448 1447 1447 1448 1448 1449 1450 1451 1453 1453 1454 1455 1456 1458 1459 1461 1462 1464 1465 1467 1468 1470 1471
1477 1476 1474 1473 1471 1469 1467 1465 1463 1461 1459 1458 1456 1454 1452 1450 1448 1447 1446 1444 1443 1442 1442 1443 1443 1444 1445 1446 1447 1448 1449 1450 1451 1452 1453 1455 1456 1457 1459 1460 1461 1463 1464 1466
1473 1472 1470 1468 1466 1464 1462 1460 1458 1456 1454 1453 1451 1449 1446 1444 1443 1441 1440 1438 1438 1438 1438 1438 1439 1440 1440 1441 1442 1443 1444 1445 1446 1448 1449 1450 1451 1452 1453 1455 1456 1457 1459 1460
1469 1468 1466 1464 1462 1460 1458 1456 1454 1452 1450 1448 1446 1444 1442 1440 1439 1437 1435 1434 1434 1434 1434 1434 1434 1435 1436 1437 1438 1439 1440 1441 1442 1443 1444 1445 1446 1447 1448 1450 1451 1452 1453 1455
1466 1464 1462 1460 1458 1456 1454 1452 1450 1448 1445 1443 1442 1440 1438 1436 1435 1433 1432 1431 1430 1430 1429 1429 1430 1431 1432 1433 1434 1434 1435 1436 1438 1439 1440 1441 1441 1442 1443 1444 1445 1447 1448 1449
1462 1461 1459 1457 1454 1452 1450 1448 1446 1444 1442 1440 1438 1436 1434 1433 1431 1430 1428 1428 1427 1426 1426 1426 1426 1427 1427 1428 1429 1430 1431 1432 1433 1434 1435 1435 1436 1437 1438 1439 1440 1441 1442 1443
1459 1457 1455 1453 1451 1449 1447 1444 1442 1440 1438 1437 1435 1433 1432 1430 1428 1427 1426 1424 1424 1423 1422 1422 1422 1423 1423 1424 1425 1425 1426 1427 1428 1429 1430 1430 1431 1432 1433 1434 1435 1436 1436 1437
1455 1453 1452 1450 1448 1446 1444 1442 1439 1437 1435 1433 1432 1430 1429 1428 1426 1424 1423 1421 1421 1420 1419 1419 1419 1419 1420 1420 1421 1421 1422 1422 1423 1424 1425 1425 1426 1426 1427 1428 1429 1430 1431 1432
1452 1450 1449 1447 1445 1443 1442 1440 1437 1435 1433 1431 1429 1428 1426 1424 1422 1421 1420 1419 1419 1418 1417 1417 1417 1417 1417 1417 1417 1417 1418 1418 1418 1418 1419 1420 1420 1421 1422 1423 1424 1425 1426 1427
1448 1447 1445 1443 1442 1441 1439 1438 1435 1433 1432 1430 1427 1426 1424 1421 1420 1419 1418 1417 1416 1416 1415 1414 1414 1414 1414 1414 1414 1414 1414 1414 1414 1414 1414 1415 1416 1416 1417 1418 1419 1419 1420 1421